• In Czech Republic
  • List of Countries
  • For 7 days
  • Water Temperature
  • Satellite Maps
  • Weather Map
  • Weather Widgets
  • user-avatar
    Login

    Hourly Weather Oupeye

    Today, 14 December, Thursday

    Time Temperature Precipitation Wind Pressure Humidity
    00:00 +4°C° 0 mm 4 mps 735 mmHg 87%
    01:00 +3°C° 1.1 mm 6 mps 735 mmHg 84%
    02:00 +2°C° 1.1 mm 8 mps 735 mmHg 80%
    03:00 +2°C° 1.1 mm 10 mps 735 mmHg 77%
    04:00 +1°C° 0.2 mm 10 mps 736 mmHg 76%
    05:00 +1°C° 0.2 mm 9 mps 737 mmHg 75%
    06:00 +1°C° 0.2 mm 8 mps 737 mmHg 74%
    07:00 +1°C° 0.1 mm 8 mps 738 mmHg 76%
    08:00 +1°C° 0.1 mm 8 mps 738 mmHg 78%
    09:00 +1°C° 0.1 mm 8 mps 738 mmHg 79%
    10:00 +2°C° 0.5 mm 8 mps 738 mmHg 78%
    11:00 +2°C° 0.5 mm 8 mps 738 mmHg 78%
    12:00 +2°C° 0.5 mm 8 mps 737 mmHg 77%
    13:00 +3°C° 0.4 mm 7 mps 737 mmHg 78%
    14:00 +3°C° 0.4 mm 7 mps 737 mmHg 78%
    15:00 +3°C° 0.4 mm 6 mps 736 mmHg 78%
    16:00 +2°C° 0.1 mm 5 mps 736 mmHg 80%
    17:00 +2°C° 0.1 mm 5 mps 736 mmHg 83%
    18:00 +1°C° 0.1 mm 4 mps 735 mmHg 86%
    19:00 +1°C° 0 mm 4 mps 735 mmHg 87%
    20:00 +1°C° 0 mm 4 mps 735 mmHg 88%
    21:00 +1°C° 0 mm 4 mps 735 mmHg 89%
    22:00 0°C° 0 mm 4 mps 736 mmHg 89%
    23:00 0°C° 0 mm 4 mps 736 mmHg 90%

    Tomorrow, 15 December, Friday

    Time Temperature Precipitation Wind Pressure Humidity
    00:00 0°C° 0 mm 4 mps 736 mmHg 90%
    01:00 0°C° 0 mm 4 mps 736 mmHg 90%
    02:00 -1°C° 0 mm 4 mps 736 mmHg 90%
    03:00 -1°C° 0 mm 4 mps 736 mmHg 90%
    04:00 0°C° 0.2 mm 4 mps 736 mmHg 89%
    05:00 0°C° 0.2 mm 4 mps 737 mmHg 89%
    06:00 0°C° 0.2 mm 4 mps 737 mmHg 89%
    07:00 +1°C° 0.3 mm 4 mps 737 mmHg 90%
    08:00 +1°C° 0.3 mm 5 mps 737 mmHg 90%
    09:00 +2°C° 0.3 mm 5 mps 738 mmHg 91%
    10:00 +2°C° 0.1 mm 5 mps 738 mmHg 89%
    11:00 +3°C° 0.1 mm 4 mps 738 mmHg 88%
    12:00 +4°C° 0.1 mm 4 mps 739 mmHg 86%
    13:00 +3°C° 0.1 mm 4 mps 739 mmHg 88%
    14:00 +3°C° 0.1 mm 3 mps 740 mmHg 89%
    15:00 +4°C° 0.1 mm 2 mps 740 mmHg 90%
    16:00 +4°C° 0 mm 2 mps 741 mmHg 91%
    17:00 +3°C° 0 mm 2 mps 741 mmHg 92%
    18:00 +3°C° 0 mm 2 mps 742 mmHg 93%
    19:00 +3°C° 0.1 mm 2 mps 743 mmHg 93%
    20:00 +3°C° 0.1 mm 2 mps 743 mmHg 93%
    21:00 +3°C° 0.1 mm 2 mps 744 mmHg 93%
    22:00 +3°C° 0.1 mm 2 mps 744 mmHg 94%
    23:00 +2°C° 0.1 mm 2 mps 745 mmHg 94%

    Day after tomorrow, 16 December, Saturday

    Time Temperature Precipitation Wind Pressure Humidity
    00:00 +2°C° 0.1 mm 2 mps 746 mmHg 94%
    01:00 +2°C° 0.1 mm 2 mps 746 mmHg 94%
    02:00 +2°C° 0.1 mm 2 mps 747 mmHg 93%
    03:00 +2°C° 0.1 mm 2 mps 747 mmHg 93%
    04:00 +2°C° 0.1 mm 2 mps 748 mmHg 92%
    05:00 +1°C° 0.1 mm 3 mps 748 mmHg 92%
    06:00 +1°C° 0.1 mm 3 mps 749 mmHg 92%
    07:00 +1°C° 0.1 mm 3 mps 749 mmHg 91%
    08:00 +1°C° 0.1 mm 3 mps 750 mmHg 89%
    09:00 0°C° 0.1 mm 4 mps 751 mmHg 88%
    10:00 +1°C° 0.2 mm 4 mps 751 mmHg 85%
    11:00 +3°C° 0.2 mm 4 mps 751 mmHg 82%
    12:00 +2°C° 0.2 mm 5 mps 752 mmHg 80%
    13:00 +2°C° 0.3 mm 5 mps 752 mmHg 81%
    14:00 +1°C° 0.3 mm 4 mps 752 mmHg 82%
    15:00 +1°C° 0.3 mm 4 mps 753 mmHg 83%
    16:00 +1°C° 0.2 mm 4 mps 753 mmHg 85%
    17:00 0°C° 0.2 mm 4 mps 754 mmHg 87%
    18:00 0°C° 0.2 mm 4 mps 754 mmHg 88%
    19:00 0°C° 0.1 mm 4 mps 755 mmHg 89%
    20:00 0°C° 0.1 mm 4 mps 755 mmHg 90%
    21:00 0°C° 0.1 mm 4 mps 756 mmHg 91%
    22:00 -1°C° 0.1 mm 4 mps 756 mmHg 91%
    23:00 0°C° 0.1 mm 3 mps 757 mmHg 92%

    17 December, Sunday

    Time Temperature Precipitation Wind Pressure Humidity
    00:00 0°C° 0.1 mm 3 mps 757 mmHg 93%
    01:00 0°C° 0.1 mm 3 mps 758 mmHg 93%
    02:00 0°C° 0.1 mm 3 mps 758 mmHg 93%
    03:00 0°C° 0.1 mm 3 mps 758 mmHg 94%
    04:00 0°C° 0.1 mm 3 mps 759 mmHg 94%
    05:00 0°C° 0.1 mm 3 mps 759 mmHg 94%
    06:00 0°C° 0.1 mm 3 mps 760 mmHg 94%
    07:00 0°C° 0 mm 3 mps 760 mmHg 92%
    08:00 0°C° 0 mm 3 mps 761 mmHg 91%
    09:00 0°C° 0 mm 3 mps 761 mmHg 90%
    10:00 0°C° 0 mm 4 mps 761 mmHg 88%
    11:00 0°C° 0 mm 4 mps 761 mmHg 85%
    12:00 +1°C° 0 mm 4 mps 761 mmHg 83%
    13:00 +1°C° 0 mm 4 mps 761 mmHg 84%
    14:00 0°C° 0 mm 4 mps 761 mmHg 85%
    15:00 +1°C° 0 mm 3 mps 762 mmHg 86%
    16:00 0°C° 0 mm 4 mps 762 mmHg 88%
    17:00 0°C° 0 mm 4 mps 762 mmHg 89%
    18:00 0°C° 0 mm 4 mps 762 mmHg 90%
    19:00 +1°C° 0.1 mm 4 mps 762 mmHg 91%
    20:00 +1°C° 0.1 mm 5 mps 762 mmHg 93%
    21:00 +2°C° 0.1 mm 5 mps 761 mmHg 94%
    22:00 +2°C° 0.3 mm 6 mps 761 mmHg 94%
    23:00 +3°C° 0.3 mm 6 mps 761 mmHg 94%

    18 December, Monday

    Time Temperature Precipitation Wind Pressure Humidity
    00:00 +3°C° 0.3 mm 7 mps 760 mmHg 94%
    01:00 +4°C° 0.2 mm 7 mps 760 mmHg 94%
    02:00 +4°C° 0.2 mm 7 mps 759 mmHg 93%
    03:00 +4°C° 0.2 mm 8 mps 759 mmHg 93%
    04:00 +5°C° 1.1 mm 8 mps 758 mmHg 93%
    05:00 +5°C° 1.1 mm 8 mps 758 mmHg 93%
    06:00 +5°C° 1.1 mm 8 mps 758 mmHg 93%
    07:00 +5°C° 2.1 mm 8 mps 758 mmHg 94%
    08:00 +6°C° 2.1 mm 7 mps 758 mmHg 94%
    09:00 +6°C° 2.1 mm 7 mps 758 mmHg 95%
    10:00 +7°C° 1.4 mm 6 mps 758 mmHg 94%
    11:00 +7°C° 1.4 mm 5 mps 758 mmHg 94%
    12:00 +7°C° 1.4 mm 5 mps 758 mmHg 94%
    13:00 +7°C° 0.3 mm 4 mps 759 mmHg 94%
    14:00 +7°C° 0.3 mm 4 mps 759 mmHg 94%
    15:00 +6°C° 0.3 mm 4 mps 759 mmHg 94%
    16:00 +7°C° 0 mm 3 mps 759 mmHg 95%
    17:00 +5°C° 0 mm 3 mps 760 mmHg 95%
    18:00 +5°C° 0 mm 2 mps 761 mmHg 95%
    19:00 +5°C° 0 mm 2 mps 761 mmHg 96%
    20:00 +4°C° 0 mm 2 mps 762 mmHg 96%
    21:00 +5°C° 0 mm 1 mps 762 mmHg 96%
    22:00 +5°C° 0 mm 1 mps 763 mmHg 96%
    23:00 +4°C° 0 mm 1 mps 763 mmHg 96%

    19 December, Tuesday

    Time Temperature Precipitation Wind Pressure Humidity
    00:00 +4°C° 0 mm 1 mps 763 mmHg 96%
    01:00 +4°C° 0 mm 1 mps 763 mmHg 96%
    02:00 +3°C° 0 mm 0 mps 764 mmHg 96%
    03:00 +2°C° 0 mm 0 mps 764 mmHg 95%
    04:00 +2°C° 0 mm 0 mps 764 mmHg 95%
    05:00 +2°C° 0 mm 0 mps 765 mmHg 95%
    06:00 +1°C° 0 mm 0 mps 765 mmHg 94%
    07:00 +2°C° 0 mm 0 mps 766 mmHg 93%
    08:00 +3°C° 0 mm 1 mps 766 mmHg 92%
    09:00 +3°C° 0 mm 1 mps 767 mmHg 91%
    10:00 +4°C° 0 mm 1 mps 767 mmHg 87%
    11:00 +5°C° 0 mm 1 mps 767 mmHg 83%
    12:00 +6°C° 0 mm 1 mps 767 mmHg 79%
    13:00 +6°C° 0 mm 1 mps 767 mmHg 82%
    14:00 +5°C° 0 mm 1 mps 767 mmHg 85%
    15:00 +4°C° 0 mm 1 mps 767 mmHg 88%
    16:00 +4°C° 0 mm 1 mps 767 mmHg 89%
    17:00 +3°C° 0 mm 1 mps 767 mmHg 90%
    18:00 +2°C° 0 mm 1 mps 768 mmHg 91%
    19:00 +2°C° 0 mm 1 mps 768 mmHg 91%
    20:00 +2°C° 0 mm 1 mps 768 mmHg 91%
    21:00 +2°C° 0 mm 1 mps 768 mmHg 91%
    22:00 +2°C° 0 mm 1 mps 768 mmHg 90%
    23:00 +2°C° 0 mm 1 mps 768 mmHg 90%
    Show more